Location: Autingues
(50.8400°N, 1.9737°E)
Time: 08:24:30
(UTC+00:00)

Daily predictions for brighter satellites

Satellite Brightness Start Highest point End
(mag) Time Altitude Azimuth Time Altitude Azimuth Time Altitude Azimuth
CZ-4B R/B 3.4 20:08:06 10° SSE 20:13:46 84° WSW 20:19:24 10° NNW
Cosmos 2233 Rocket 4.0 20:09:17 10° S 20:15:24 66° E 20:21:30 10° NNE
Cosmos 1302 Rocket 4.0 20:12:46 10° SSW 20:17:56 89° ESE 20:23:11 10° NNE
Okean-O 2.8 20:15:51 10° SSE 20:20:09 61° ENE 20:24:29 10° N
Cosmos 2219 Rocket 3.5 20:15:33 10° NNW 20:20:28 29° NE 20:25:24 10° ESE
Cosmos 1758 Rocket 3.9 20:16:40 10° N 20:20:58 51° ENE 20:25:17 10° SSE
Cosmos 909 Rocket 4.1 20:14:55 10° SSW 20:21:08 62° ESE 20:27:33 10° NE
CZ-2C R/B 4.4 20:22:13 10° E 20:23:17 12° ENE 20:24:23 10° NE
DNEPR-1 R/B 4.5 20:23:04 10° NW 20:28:22 67° NE 20:34:53 10° SE
ADEOS 4.0 20:27:16 10° S 20:32:26 65° WSW 20:37:38 10° NNW
Cosmos 1805 4.2 20:31:25 10° NNE 20:34:09 24° ENE 20:36:34 12° SE
Cosmos 1725 Rocket 4.4 20:29:14 10° SSW 20:35:27 68° WNW 20:41:41 10° N
NOSS 3-3 (C) 3.7 20:31:06 10° SSW 20:36:19 72° SE 20:42:38 10° NE
Cosmos 2322 Rocket 2.6 20:35:03 10° NNW 20:40:37 55° NE 20:45:49 12° SE
USA 306 2.9 20:41:49 10° W 20:44:48 40° NNW 20:46:48 10° ENE
Cosmos 1602 Rocket 3.9 20:40:43 10° N 20:44:56 51° ENE 20:48:44 13° SSE
Tsikada Rocket 4.3 20:39:11 10° NNW 20:45:18 68° W 20:51:23 10° S
Cosmos 2082 Rocket 2.7 20:40:29 10° SW 20:46:10 67° WNW 20:51:53 10° NNE
NOSS 3-4 (A) 3.9 20:41:21 10° NW 20:47:56 80° NE 20:55:06 12° SE
NOSS 3-4 (C) 3.9 20:41:59 10° NW 20:48:34 79° NE 20:55:45 13° SE
YAOGAN 11 4.1 20:47:39 10° NNE 20:52:06 75° ESE 20:56:34 10° S
CZ-4B R/B 2.7 20:49:58 14° SSE 20:52:43 55° ENE 20:56:09 10° N
Cosmos 2151 2.9 20:51:06 10° N 20:55:15 88° ENE 20:59:05 12° S
Cosmos 2098 Rocket 3.7 20:53:24 12° SSE 20:57:22 38° E 21:01:11 10° NNE
CZ-4C R/B 3.8 20:55:06 10° W 20:59:24 36° NNW 21:04:56 10° NE
Cosmos 1626 Rocket 4.0 20:56:43 10° NNW 21:01:02 62° W 21:05:22 10° S
Ariane Rocket 3.1 20:59:02 14° SSE 21:03:20 65° ENE 21:08:22 10° N
Cosmos 2278 3.8 21:02:08 10° NNW 21:07:52 77° WSW 21:12:37 15° SSE
Spot 2 Rocket 4.3 21:03:56 10° S 21:08:46 48° W 21:13:39 10° NNW
SL-16 R/B 2.6 21:06:17 10° NW 21:11:51 58° WSW 21:16:43 14° S
COSMOS 2428 4.3 21:07:30 10° NNW 21:12:18 27° NE 21:17:04 10° E
Meteor 1-5 Rocket 4.4 21:07:08 10° N 21:12:53 71° ENE 21:17:38 16° SSE
SPOT 3 Rocket 3.6 21:09:24 13° SSE 21:13:58 83° WSW 21:19:08 10° NNW
Cosmos 1763 Rocket 4.2 21:10:53 15° SSE 21:14:33 34° ESE 21:19:17 10° NE
USA 186 3.2 21:13:04 10° SSW 21:15:28 27° W 21:17:54 10° NW
USA 290 2.7 21:18:07 23° SSE 21:19:30 36° ESE 21:22:26 10° NE
Cosmos 1606 Rocket 3.8 21:17:14 18° SSE 21:20:15 49° E 21:24:25 10° NNE
Cosmos 1513 Rocket 4.5 21:16:00 10° S 21:22:13 87° E 21:28:22 10° N
Cosmos 990 Rocket 4.3 21:17:22 10° NNW 21:22:29 57° ENE 21:26:04 19° SE
Cosmos 1933 3.5 21:20:17 10° SSW 21:24:03 67° WNW 21:27:52 10° N
Cosmos 1464 Rocket 4.0 21:18:40 12° S 21:24:14 65° E 21:30:22 10° NNE
ISS -3.7 21:22:01 10° W 21:25:22 78° N 21:28:15 13° E
Cosmos 1461 3.0 21:22:18 10° SW 21:25:58 64° NW 21:29:38 10° NE
Helios 1B rocket 4.2 21:24:22 12° E 21:26:10 16° ENE 21:28:23 10° NNE
CZ-4B R/B 3.4 21:23:15 17° S 21:26:59 77° WSW 21:31:52 10° NNW
BREEZE-M DEB (TANK) 0.9 21:24:54 10° W 21:27:35 62° S 21:28:12 37° ESE
Okean 1 3.4 21:25:54 24° SSE 21:27:39 44° E 21:31:06 10° NNE
Cosmos 1726 Rocket 3.9 21:25:49 22° SSE 21:27:57 41° E 21:31:46 10° NNE
COSMOS 2406 3.7 21:24:36 10° SW 21:30:18 64° WNW 21:36:02 10° NNE
Terra 4.3 21:28:25 10° SW 21:31:25 17° W 21:34:27 10° NW
Okean O Rocket 3.4 21:30:43 10° SSW 21:34:21 26° W 21:38:00 10° NW
Cosmos 1536 4.0 21:32:18 10° NNE 21:35:27 26° ENE 21:36:59 20° ESE
Cosmos 1428 Rocket 4.5 21:31:15 10° N 21:37:31 82° E 21:42:00 20° SSE
Cosmos-2242 3.8 21:37:47 24° SE 21:39:20 32° E 21:43:00 10° NNE
Cosmos 1777 Rocket 4.3 21:34:38 10° NNW 21:39:49 63° WSW 21:43:21 20° S
Cosmos 1092 Rocket 4.4 21:35:22 10° N 21:41:23 52° ENE 21:45:21 22° SE
Cosmos 1437 Rocket 4.0 21:38:17 10° SW 21:41:36 36° WNW 21:44:59 10° N
Cosmos 2333 Rocket 3.2 21:36:55 10° NW 21:42:12 40° WSW 21:46:30 15° S
Okean 1-7 Rocket 3.9 21:42:55 10° NNW 21:47:21 65° W 21:50:19 21° S
Cosmos 1833 4.2 21:44:13 13° S 21:49:08 60° ESE 21:54:41 10° NE
Cosmos 1503 Rocket 4.1 21:44:44 10° NNW 21:49:54 67° WSW 21:53:04 23° S
Cosmos 2360 Rocket 2.6 21:46:34 10° NW 21:52:07 55° WSW 21:55:44 21° S
CZ-2C R/B 2.9 21:52:44 28° SSW 21:53:42 40° W 21:56:21 10° NNW
Cosmos 1766 3.1 21:52:46 10° N 21:55:56 50° ENE 21:56:45 38° SE
Cosmos 2322 4.3 21:50:58 10° NNW 21:56:32 49° NE 22:00:18 20° ESE
Cosmos 1842 4.5 21:56:49 19° E 21:56:49 19° E 21:59:07 10° NE
Cosmos 1975 4.5 21:55:13 10° NNE 21:57:58 19° ENE 21:59:14 17° E
Cosmos 372 Rocket 4.3 21:57:35 10° NNW 22:02:38 57° ENE 22:05:24 26° SE
Cosmos 2034 Rocket 4.0 21:58:36 19° S 22:03:24 83° E 22:09:45 10° N
Cosmos 2221 4.1 22:03:18 18° ESE 22:04:11 19° E 22:07:11 10° NE
Cosmos 2219 Rocket 2.3 21:59:15 10° NNW 22:04:53 68° WSW 22:08:05 26° S
Cosmos 1354 Rocket 4.1 21:59:42 10° NNW 22:04:57 72° WSW 22:07:46 27° S
Cosmos 1271 Rocket 3.9 22:06:21 22° E 22:06:26 22° E 22:09:09 10° NE
Cosmos 1825 Rocket 4.4 22:07:09 10° NNW 22:11:17 44° W 22:13:51 21° SSW
Cosmos 540 Rocket 3.4 22:07:44 18° SSW 22:11:36 84° ESE 22:16:47 10° NNE
USA 306 3.4 22:09:58 10° WNW 22:11:19 22° NW 22:11:19 22° NW
Helios 1A 2.9 22:13:04 10° NNE 22:16:57 58° ESE 22:18:07 39° SSE
Cosmos 1953 Rocket 3.8 22:13:53 10° NNW 22:18:12 63° W 22:20:10 30° SSW
RESURS DK-1 2.7 22:15:16 10° NNW 22:19:11 54° NE 22:20:45 32° ESE
Cosmos 2279 Rocket 4.4 22:16:39 27° SSE 22:19:45 47° E 22:25:43 10° NNE
Aureole 1 Rocket 4.0 22:14:56 10° NNW 22:20:43 83° WSW 22:24:34 28° SSE
Cosmos 1707 1.8 22:23:33 71° SW 22:23:46 80° W 22:26:36 10° N
Cosmos 2322 Rocket 3.5 22:19:30 10° NW 22:24:23 30° WSW 22:27:37 18° SSW
Cosmos 1634 Rocket 4.0 22:22:33 27° S 22:26:03 71° E 22:32:14 10° NNE
Cosmos 1937 Rocket 4.0 22:22:29 10° NNW 22:27:32 51° ENE 22:30:09 26° SE
TSX-5 3.1 22:26:15 10° NW 22:29:24 86° WSW 22:29:55 61° SSE
Cosmos 2058 Rocket 3.0 22:30:59 35° SSW 22:32:48 87° W 22:37:10 10° N
Geosat 3.9 22:27:57 10° NE 22:32:58 70° ESE 22:35:38 28° SSW
Cosmos 468 Rocket 3.9 22:30:14 28° S 22:33:02 74° ESE 22:38:17 10° NNE
CZ-2C R/B 4.3 22:28:54 10° NNE 22:33:07 39° E 22:34:15 33° SE
BREEZE-M DEB 4.5 22:32:05 10° WSW 22:36:42 53° SSE 22:48:39 10° E
Cosmos 2026 Rocket 4.4 22:31:34 10° NNW 22:37:50 60° W 22:41:40 24° SSW
Meteor 2-9 Rocket 4.3 22:33:31 10° N 22:38:55 66° ENE 22:41:25 32° SSE
Cosmos 44 3.8 22:33:46 10° NW 22:39:02 53° WSW 22:41:01 34° S
Lacrosse 4 Rocket 3.7 22:42:44 11° E 22:42:44 11° E 22:43:14 10° E
CZ-2C R/B 4.2 22:39:09 14° ESE 22:42:31 25° ENE 22:46:41 10° N
Cosmos 2237 Rocket 3.0 22:37:58 10° NNW 22:43:26 45° NE 22:47:09 19° ESE
Cosmos 2266 Rocket 4.4 22:41:31 10° N 22:47:25 51° ENE 22:50:26 28° SE
Cosmos 1980 4.3 22:42:13 10° NNW 22:47:45 50° NE 22:51:12 22° ESE
USA 234 4.0 22:43:02 10° ENE 22:48:36 29° SE 22:49:36 28° SE
Cosmos 1470 2.1 22:45:43 10° N 22:49:02 88° E 22:49:19 73° SSE
ARIANE 5 R/B 2.7 22:52:41 41° SSE 22:54:09 74° ENE 22:58:38 10° N
ALOS 2 2.8 22:54:46 40° SE 22:56:13 64° ENE 23:00:34 10° N
Cosmos 2227 Rocket 4.0 22:55:49 14° ESE 22:56:56 15° E 23:00:01 10° ENE
COSMOS 2428 2.7 22:51:26 10° NNW 22:57:09 77° WSW 22:59:34 36° SSE
Helios 1B rocket 2.4 22:58:18 45° SW 22:58:48 49° WSW 23:02:13 10° NNW
ISS -2.8 22:58:52 10° W 23:01:10 35° WSW 23:01:10 35° WSW
Cosmos 1898 Rocket 3.5 22:57:31 10° NNW 23:02:40 68° WSW 23:04:34 39° S
Cosmos 2263 Rocket 4.3 23:04:09 10° ESE 23:05:10 10° E 23:06:10 10° E
CZ-2C R/B 4.2 23:02:06 10° NNE 23:07:23 36° E 23:09:26 28° SE
Meteor 1-11 Rocket 3.7 23:02:08 10° N 23:07:48 74° ENE 23:10:10 36° SSE
Cosmos 1536 4.1 23:07:29 10° NNW 23:10:38 27° W 23:11:30 24° WSW
SAR-Lupe-2 3.4 23:10:57 60° E 23:11:12 63° ENE 23:14:30 10° N
Meteor 1-10 Rocket 4.4 23:11:29 36° SSE 23:13:56 66° E 23:19:50 10° NNE
Cosmos 1238 Rocket 4.1 23:14:04 28° ESE 23:14:48 30° E 23:18:36 10° NNE
PSLV R/B 3.7 23:12:03 10° NNE 23:16:19 58° E 23:17:16 46° SSE
NOSS 8 (H) 4.2 23:16:56 10° NW 23:19:32 71° NW 23:19:32 71° NW
Alouette 2 Rocket 4.4 23:22:57 10° N 23:26:36 43° ENE 23:28:18 30° ESE
Meteor 1-27 Rocket 4.0 23:25:49 35° SSE 23:28:02 56° E 23:33:39 10° NNE
NOSS 0 Rocket 4.0 23:22:17 10° NW 23:28:23 62° WSW 23:30:48 36° S
Cosmos 841 Rocket 3.5 23:27:23 33° SSW 23:29:46 78° WNW 23:35:03 10° NNE
Cosmos 2297 Rocket 2.3 23:27:59 39° S 23:29:51 57° ESE 23:35:23 10° NE
Cosmos 1842 4.3 23:29:26 25° W 23:29:59 26° WNW 23:32:44 10° NNW
Cosmos 1975 3.4 23:29:39 10° NNW 23:33:05 38° W 23:33:29 36° WSW
Spot 4 4.3 23:36:12 37° SW 23:37:34 47° W 23:42:13 10° NNW
Cosmos 1271 Rocket 4.0 23:39:41 24° W 23:40:32 27° WNW 23:43:29 10° N
Cosmos 2221 3.1 23:39:35 35° WSW 23:40:51 47° WNW 23:44:57 10° N
Cosmos 1812 Rocket 3.7 23:39:58 43° SW 23:41:15 65° WNW 23:45:40 10° N
ACS3 Solar Sail 3.1 23:38:23 10° NNE 23:43:24 27° E 23:46:10 19° SE
MetOp-A 3.7 23:42:38 44° SSE 23:44:12 88° WSW 23:48:51 10° NNW
Cosmos 2219 Rocket 4.4 23:45:40 10° WNW 23:47:44 12° W 23:49:46 10° WSW
Landsat 5 4.4 23:44:14 10° NNE 23:47:54 31° E 23:48:28 30° ESE
RESURS DK-1 4.1 23:53:22 10° WNW 23:55:58 19° WSW 23:55:58 19° WSW
